DW4212 Weather Reports


Display with metric or nautical units.
time (UTC)temp
F
wind
direction
speed
MPH
gust
MPH
rain 1hr
in
rain 24hr
in
rain mn
in
humidity
%
barometer
mb
20260904013929 73 15 0.0 0.0 0.00 0.00 0.00 27 1027.3
20260904012926 74 15 0.0 0.0 0.00 0.00 0.00 26 1027.3
20260904011919 75 15 0.0 0.0 0.00 0.00 0.00 25 1027.4
20260904010928 75 15 0.0 0.0 0.00 0.00 0.00 25 1027.4
20260904005913 75 15 0.0 0.0 0.00 0.00 0.00 25 1027.5
20260904004921 76 15 0.0 0.0 0.00 0.00 0.00 24 1027.5
20260904003929 76 15 0.0 0.0 0.00 0.00 0.00 24 1027.6
20260904002930 76 15 0.0 0.0 0.00 0.00 0.00 24 1027.5
20260904001922 75 15 0.0 0.0 0.00 0.00 0.00 25 1027.5
20260904000911 75 15 0.0 0.0 0.00 0.00 0.00 26 1027.4
20260903235912 75 15 0.0 0.0 0.00 0.00 0.00 26 1027.4
20260903234921 76 14 0.0 0.0 0.00 0.00 0.00 25 1027.5
20260903233929 76 14 0.0 0.0 0.00 0.00 0.00 25 1027.4
20260903232914 77 14 0.0 0.0 0.00 0.00 0.00 25 1027.5
20260903231923 77 16 0.0 3.0 0.00 0.00 0.00 25 1027.5
20260903230911 77 16 0.0 4.0 0.00 0.00 0.00 25 1027.4
20260903225929 77 11 0.0 4.0 0.00 0.00 0.00 25 1027.3
20260903224917 77 22 0.0 0.0 0.00 0.00 0.00 25 1027.3
20260903223926 77 22 0.0 2.0 0.00 0.00 0.00 24 1027.2
20260903222928 77 22 0.0 0.0 0.00 0.00 0.00 24 1027.2
20260903221917 77 22 0.0 0.0 0.00 0.00 0.00 24 1027.2
20260903220926 77 22 0.0 0.0 0.00 0.00 0.00 24 1027.2
20260903215925 78 22 0.0 0.0 0.00 0.00 0.00 24 1027.1
20260903213930 78 22 0.0 0.0 0.00 0.00 0.00 24 1027.2
20260903212928 78 22 0.0 0.0 0.00 0.00 0.00 24 1027.0
20260903211916 79 21 0.0 0.0 0.00 0.00 0.00 23 1027.2
20260903210924 79 21 0.0 0.0 0.00 0.00 0.00 23 1027.1
20260903205924 80 21 0.0 0.0 0.00 0.00 0.00 22 1027.1
20260903204912 81 20 0.0 3.0 0.00 0.00 0.00 22 1027.1
20260903203924 82 19 0.0 3.0 0.00 0.00 0.00 22 1027.0
20260903201915 83 347 0.0 6.0 0.00 0.00 0.00 20 1027.0
20260903200924 83 319 3.0 9.0 0.00 0.00 0.00 20 1026.8
20260903195924 83 18 0.0 3.0 0.00 0.00 0.00 21 1026.7
20260903194915 83 348 0.0 4.0 0.00 0.00 0.00 21 1026.6
20260903193924 83 333 1.0 4.0 0.00 0.00 0.00 21 1026.5
20260903192947 84 338 1.0 5.0 0.00 0.00 0.00 21 1026.3
20260903191935 84 317 0.0 2.0 0.00 0.00 0.00 21 1026.2
20260903190944 84 304 0.0 4.0 0.00 0.00 0.00 20 1026.1
20260903185947 85 302 0.0 3.0 0.00 0.00 0.00 20 1026.0
20260903184939 86 299 0.0 4.0 0.00 0.00 0.00 19 1026.0
20260903183948 87 306 1.0 4.0 0.00 0.00 0.00 19 1026.0
20260903182949 87 298 2.0 5.0 0.00 0.00 0.00 18 1025.9
20260903181936 89 294 0.0 5.0 0.00 0.00 0.00 18 1025.9
20260903180946 89 300 1.0 6.0 0.00 0.00 0.00 17 1025.9
20260903175950 90 310 0.0 7.0 0.00 0.00 0.00 17 1025.8
20260903174935 91 329 1.0 8.0 0.00 0.00 0.00 16 1025.9
20260903173945 92 333 2.0 9.0 0.00 0.00 0.00 16 1025.8
20260903172945 93 346 2.0 6.0 0.00 0.00 0.00 16 1025.8
20260903171934 94 292 1.0 6.0 0.00 0.00 0.00 15 1025.9
20260903170932 94 287 2.0 10.0 0.00 0.00 0.00 15 1025.8
20260903165934 94 317 1.0 8.0 0.00 0.00 0.00 14 1025.9
20260903164942 95 15 1.0 7.0 0.00 0.00 0.00 14 1025.8
20260903163951 95 331 1.0 8.0 0.00 0.00 0.00 14 1025.7
20260903162933 95 355 2.0 9.0 0.00 0.00 0.00 13 1025.6
20260903161942 95 35 3.0 12.0 0.00 0.00 0.00 13 1025.6
20260903160933 96 337 2.0 9.0 0.00 0.00 0.00 12 1025.6
20260903155935 96 348 3.0 11.0 0.00 0.00 0.00 12 1025.6
20260903154942 96 43 1.0 10.0 0.00 0.00 0.00 12 1025.6
20260903153951 97 355 4.0 12.0 0.00 0.00 0.00 12 1025.6
20260903152948 96 328 2.0 8.0 0.00 0.00 0.00 13 1025.6
20260903151937 95 306 1.0 6.0 0.00 0.00 0.00 14 1025.7
20260903150950 95 80 0.0 5.0 0.00 0.00 0.00 14 1025.7
20260903145950 95 62 0.0 1.0 0.00 0.00 0.00 16 1025.8
20260903144937 94 87 0.0 4.0 0.00 0.00 0.00 19 1026.0
20260903143945 94 136 0.0 1.0 0.00 0.00 0.00 19 1025.9
20260903142946 95 175 0.0 7.0 0.00 0.00 0.00 18 1026.0
20260903141938 95 182 1.0 7.0 0.00 0.00 0.00 18 1025.9
20260903140948 95 186 0.0 4.0 0.00 0.00 0.00 19 1026.0
20260903135949 95 186 3.0 11.0 0.00 0.00 0.00 19 1026.2
20260903134953 95 182 1.0 0.0 0.00 0.00 0.00 19 1025.9
20260903133935 95 153 0.0 5.0 0.00 0.00 0.00 20 1026.4
20260903132937 94 165 0.0 6.0 0.00 0.00 0.00 21 1026.5
20260903131951 93 138 0.0 2.0 0.00 0.00 0.00 23 1026.5
20260903131018 93 142 1.0 9.0 0.00 0.00 0.00 23 1026.7
20260903125939 93 78 0.0 7.0 0.00 0.00 0.00 23 1026.7
20260903123944 93 214 1.0 7.0 0.00 0.00 0.00 23 1026.7
20260903122946 92 171 1.0 7.0 0.00 0.00 0.00 24 1026.9
20260903121934 92 179 1.0 8.0 0.00 0.00 0.00 24 1026.9
20260903120945 92 106 0.0 9.0 0.00 0.00 0.00 24 1026.9
20260903115948 91 79 0.0 7.0 0.00 0.00 0.00 25 1027.0
20260903114934 91 128 0.0 1.0 0.00 0.00 0.00 24 1027.2
20260903113941 91 165 0.0 8.0 0.00 0.00 0.00 24 1027.2
20260903112951 92 183 0.0 6.0 0.00 0.00 0.00 24 1027.2
20260903111940 91 181 1.0 7.0 0.00 0.00 0.00 24 1027.3
20260903110947 91 173 0.0 8.0 0.00 0.00 0.00 22 1027.3
20260903105932 90 192 3.0 7.0 0.00 0.00 0.00 24 1027.4
20260903104939 90 171 3.0 8.0 0.00 0.00 0.00 25 1027.5
20260903103948 90 186 1.0 7.0 0.00 0.00 0.00 25 1027.5
20260903102951 89 184 0.0 8.0 0.00 0.00 0.00 24 1027.4
20260903101939 89 177 2.0 8.0 0.00 0.00 0.00 25 1027.5
20260903100932 88 177 1.0 6.0 0.00 0.00 0.00 25 1027.6
20260903095934 88 177 2.0 5.0 0.00 0.00 0.00 25 1027.6
20260903094942 87 177 1.0 8.0 0.00 0.00 0.00 26 1027.7
20260903093951 86 178 2.0 6.0 0.00 0.00 0.00 25 1027.6
20260903091939 84 315 0.0 0.0 0.00 0.00 0.00 28 1027.5
20260903090951 83 315 0.0 1.0 0.00 0.00 0.00 28 1027.5
20260903085952 82 315 0.0 0.0 0.00 0.00 0.00 27 1027.4
20260903084940 80 315 0.0 0.0 0.00 0.00 0.00 30 1027.4
20260903083949 79 315 0.0 0.0 0.00 0.00 0.00 31 1027.4
20260903082932 78 315 0.0 0.0 0.00 0.00 0.00 31 1027.4
20260903081944 77 315 0.0 0.0 0.00 0.00 0.00 33 1027.3
20260903080950 76 315 0.0 0.0 0.00 0.00 0.00 33 1027.4
20260903075951 75 315 0.0 0.0 0.00 0.00 0.00 34 1027.4
20260903074934 74 315 0.0 0.0 0.00 0.00 0.00 34 1027.6
20260903073939 73 315 0.0 0.0 0.00 0.00 0.00 36 1027.6
20260903072942 71 315 0.0 0.0 0.00 0.00 0.00 34 1027.5
20260903071948 70 315 0.0 0.0 0.00 0.00 0.00 35 1027.4
20260903070919 69 315 0.0 0.0 0.00 0.00 0.00 35 1027.4
20260903065921 68 315 0.0 0.0 0.00 0.00 0.00 35 1027.3
20260903064929 67 315 0.0 0.0 0.00 0.00 0.00 36 1027.3
20260903063918 67 314 0.0 0.0 0.00 0.00 0.00 39 1027.3
20260903062924 65 314 0.0 0.0 0.00 0.00 0.00 40 1027.2
20260903061911 65 314 0.0 0.0 0.00 0.00 0.00 39 1027.1
20260903060920 64 314 0.0 0.0 0.00 0.00 0.00 39 1027.0
20260903055923 65 314 0.0 0.0 0.00 0.00 0.00 38 1026.9
20260903054916 65 314 0.0 0.0 0.00 0.00 0.00 37 1026.9
20260903053924 66 314 0.0 0.0 0.00 0.00 0.00 36 1026.8
20260903052924 67 314 0.0 0.0 0.00 0.00 0.00 35 1026.6
20260903051915 67 314 0.0 0.0 0.00 0.00 0.00 35 1026.6
20260903050923 66 314 0.0 0.0 0.00 0.00 0.00 35 1026.6
20260903045927 66 314 0.0 0.0 0.00 0.00 0.00 36 1026.6
20260903044915 65 314 0.0 0.0 0.00 0.00 0.00 37 1026.6
20260903043928 65 314 0.0 0.0 0.00 0.00 0.00 37 1026.6
20260903042930 65 314 0.0 0.0 0.00 0.00 0.00 37 1026.6
20260903041919 66 314 0.0 0.0 0.00 0.00 0.00 36 1026.5
20260903040928 66 314 0.0 0.0 0.00 0.00 0.00 36 1026.5
20260903035911 66 314 0.0 0.0 0.00 0.00 0.00 35 1026.4
20260903034921 66 314 0.0 0.0 0.00 0.00 0.00 36 1026.4
20260903034011 67 314 0.0 0.0 0.00 0.00 0.00 35 1026.3
20260903033006 66 314 0.0 0.0 0.00 0.00 0.00 35 1026.3
20260903031929 65 314 0.0 0.0 0.00 0.00 0.00 36 1026.4
20260903030922 65 314 0.0 0.0 0.00 0.00 0.00 37 1026.4
20260903025925 65 314 0.0 0.0 0.00 0.00 0.00 38 1026.4
20260903024911 65 314 0.0 0.0 0.00 0.00 0.00 39 1026.5
20260903023918 65 314 0.0 0.0 0.00 0.00 0.00 39 1026.6
20260903022924 65 314 0.0 0.0 0.00 0.00 0.00 39 1026.5
20260903021913 65 314 0.0 0.0 0.00 0.00 0.00 38 1026.4
20260903020923 66 314 0.0 0.0 0.00 0.00 0.00 37 1026.3
20260903015925 66 314 0.0 0.0 0.00 0.00 0.00 37 1026.3
20260903014918 67 314 0.0 0.0 0.00 0.00 0.00 36 1026.3